Location: Casilda
(33.0440°S, 61.1680°W)
Time: 15:50:20
(UTC-03:00)

ISS - Pass Details

Date: 20 May 2022
Orbit: 414 x 421 km, 51.6° (Epoch: 25 May)

Event Time Altitude Azimuth Distance (km) Brightness Sun altitude
Exits shadow 05:45:02 11° 20° (NNE) 1,449 -0.7 -26.3°
Maximum altitude 05:46:49 15° 54° (NE) 1,240 -0.7 -26.0°
Drops below altitude 10° 05:48:49 10° 90° (E) 1,509 0.1 -25.6°
Sets 05:51:35 0° 114° (ESE) 2,384 1.0 -25.0°
